DAL4082 KJAC-KSLC

Flight info

Callsign DAL4082
Flight time 0h 37m
Altitude 26000
Route ALPIN5 KICNE LHO CARTR1
Aircraft A320/M-SDE3FGHIRWY/LB1

Departure

Time 2026-05-07 00:06
Airport Jackson Hole Airport (KJAC)

Arrival

Time 2026-05-07 00:43
Airport Salt Lake City International Airport (KSLC)
Time Latitude Longitude Altitude Speed Heading
2026-05-06 23:58 43.60461 -110.73644 6427 ft 0 kts 110°
2026-05-06 23:59 43.60464 -110.73657 6427 ft 4 kts 108°
2026-05-06 23:59 43.60471 -110.73692 6425 ft 4 kts 97°
2026-05-07 00:00 43.60471 -110.73727 6427 ft 4 kts 68°
2026-05-07 00:00 43.60459 -110.73748 6429 ft 1 kts 19°
2026-05-07 00:00 43.60455 -110.73750 6425 ft 0 kts 19°
2026-05-07 00:02 43.60467 -110.73744 6425 ft 8 kts 18°
2026-05-07 00:03 43.60539 -110.73709 6427 ft 12 kts 20°
2026-05-07 00:03 43.60637 -110.73661 6428 ft 23 kts 20°
2026-05-07 00:03 43.60801 -110.73582 6429 ft 25 kts 18°
2026-05-07 00:03 43.60964 -110.73500 6431 ft 25 kts 19°
2026-05-07 00:04 43.61125 -110.73422 6428 ft 24 kts 20°
2026-05-07 00:04 43.61281 -110.73341 6428 ft 24 kts 18°
2026-05-07 00:04 43.61436 -110.73269 6429 ft 23 kts 19°
2026-05-07 00:04 43.61523 -110.73328 6431 ft 15 kts 276°
2026-05-07 00:05 43.61452 -110.73424 6429 ft 16 kts 199°
2026-05-07 00:05 43.61317 -110.73489 6427 ft 36 kts 200°
2026-05-07 00:05 43.60825 -110.73731 6432 ft 114 kts 199°
2026-05-07 00:05 43.59845 -110.74234 6457 ft 178 kts 207°
2026-05-07 00:06 43.58678 -110.74899 7165 ft 192 kts 207°
2026-05-07 00:06 43.57408 -110.75656 7700 ft 202 kts 208°
2026-05-07 00:06 43.56143 -110.76456 8299 ft 201 kts 209°
2026-05-07 00:06 43.54814 -110.77319 8554 ft 223 kts 208°
2026-05-07 00:07 43.53334 -110.78292 8803 ft 248 kts 211°
2026-05-07 00:07 43.51703 -110.79371 9065 ft 272 kts 208°
2026-05-07 00:07 43.49952 -110.80522 9620 ft 284 kts 210°
2026-05-07 00:07 43.48143 -110.81705 10271 ft 296 kts 209°
2026-05-07 00:08 43.46217 -110.82965 10549 ft 319 kts 209°
2026-05-07 00:08 43.44183 -110.84294 11020 ft 332 kts 208°
2026-05-07 00:08 43.42068 -110.85670 11661 ft 340 kts 209°
2026-05-07 00:08 43.39909 -110.87076 12374 ft 346 kts 209°
2026-05-07 00:09 43.37719 -110.88502 13092 ft 351 kts 210°
2026-05-07 00:09 43.35485 -110.89955 13756 ft 359 kts 210°
2026-05-07 00:09 43.33210 -110.91432 14361 ft 365 kts 210°
2026-05-07 00:09 43.30904 -110.92934 14977 ft 370 kts 210°
2026-05-07 00:10 43.28553 -110.94463 15479 ft 375 kts 210°
2026-05-07 00:10 43.26183 -110.96000 16075 ft 378 kts 210°
2026-05-07 00:10 43.23819 -110.97535 16580 ft 384 kts 210°
2026-05-07 00:10 43.21397 -110.99115 17258 ft 389 kts 210°
2026-05-07 00:11 43.18970 -111.00793 17877 ft 393 kts 212°
2026-05-07 00:11 43.16541 -111.02572 18463 ft 397 kts 213°
2026-05-07 00:11 43.14108 -111.04403 18992 ft 401 kts 213°
2026-05-07 00:11 43.11658 -111.06252 19544 ft 404 kts 213°
2026-05-07 00:12 43.09184 -111.08104 20065 ft 408 kts 213°
2026-05-07 00:12 43.06674 -111.09966 20601 ft 412 kts 213°
2026-05-07 00:12 43.04172 -111.11803 21120 ft 416 kts 212°
2026-05-07 00:12 43.01613 -111.13668 21641 ft 419 kts 212°
2026-05-07 00:13 42.99029 -111.15549 22143 ft 423 kts 212°
2026-05-07 00:13 42.96423 -111.17449 22684 ft 427 kts 212°
2026-05-07 00:13 42.93788 -111.19364 23223 ft 430 kts 212°
2026-05-07 00:13 42.91130 -111.21293 23744 ft 434 kts 212°
2026-05-07 00:14 42.88464 -111.23230 24169 ft 437 kts 212°
2026-05-07 00:14 42.85767 -111.25189 24594 ft 440 kts 212°
2026-05-07 00:14 42.83061 -111.27147 25020 ft 443 kts 212°
2026-05-07 00:14 42.80362 -111.29097 25426 ft 446 kts 212°
2026-05-07 00:15 42.77622 -111.31077 25832 ft 448 kts 213°
2026-05-07 00:15 42.74860 -111.33073 26071 ft 450 kts 213°
2026-05-07 00:15 42.72129 -111.35041 26123 ft 439 kts 213°
2026-05-07 00:15 42.69440 -111.36974 26129 ft 430 kts 213°
2026-05-07 00:16 42.66809 -111.38870 26124 ft 427 kts 213°
2026-05-07 00:16 42.64190 -111.40766 26116 ft 426 kts 213°
2026-05-07 00:16 42.61584 -111.42652 26118 ft 426 kts 213°
2026-05-07 00:16 42.58992 -111.44520 26113 ft 426 kts 213°
2026-05-07 00:17 42.56342 -111.46427 26116 ft 426 kts 213°
2026-05-07 00:17 42.53760 -111.48280 26116 ft 426 kts 213°
2026-05-07 00:17 42.51134 -111.50160 26116 ft 426 kts 213°
2026-05-07 00:17 42.48521 -111.52032 26114 ft 426 kts 212°
2026-05-07 00:18 42.45898 -111.53907 26104 ft 426 kts 212°
2026-05-07 00:18 42.43278 -111.55777 26107 ft 426 kts 212°
2026-05-07 00:18 42.40664 -111.57644 26106 ft 426 kts 213°
2026-05-07 00:18 42.38037 -111.59519 26106 ft 426 kts 212°
2026-05-07 00:19 42.35423 -111.61381 26100 ft 425 kts 212°
2026-05-07 00:19 42.32803 -111.63245 26091 ft 425 kts 212°
2026-05-07 00:19 42.30184 -111.65111 26097 ft 426 kts 212°
2026-05-07 00:19 42.27608 -111.66948 26088 ft 425 kts 212°
2026-05-07 00:20 42.24992 -111.68808 26083 ft 424 kts 212°
2026-05-07 00:20 42.22377 -111.70663 26087 ft 426 kts 212°
2026-05-07 00:20 42.19746 -111.72529 26088 ft 426 kts 212°
2026-05-07 00:20 42.17119 -111.74388 26089 ft 426 kts 212°
2026-05-07 00:21 42.14492 -111.76238 26086 ft 426 kts 212°
2026-05-07 00:21 42.11865 -111.78089 26092 ft 426 kts 212°
2026-05-07 00:21 42.09242 -111.79940 26071 ft 426 kts 212°
2026-05-07 00:21 42.06650 -111.81769 26075 ft 426 kts 212°
2026-05-07 00:22 42.04034 -111.83617 26086 ft 426 kts 212°
2026-05-07 00:22 42.01406 -111.85469 26096 ft 426 kts 212°
2026-05-07 00:22 41.98781 -111.87321 26104 ft 426 kts 212°
2026-05-07 00:22 41.96162 -111.89165 26110 ft 426 kts 212°
2026-05-07 00:23 41.93534 -111.91011 26113 ft 426 kts 212°
2026-05-07 00:23 41.90915 -111.92847 26120 ft 426 kts 212°
2026-05-07 00:23 41.88288 -111.94681 26053 ft 423 kts 212°
2026-05-07 00:23 41.85728 -111.96463 25796 ft 415 kts 212°
2026-05-07 00:24 41.83192 -111.98232 25555 ft 410 kts 212°
2026-05-07 00:24 41.80642 -111.99939 25317 ft 410 kts 206°
2026-05-07 00:24 41.77921 -112.01105 25078 ft 411 kts 194°
2026-05-07 00:24 41.75090 -112.01653 24840 ft 412 kts 189°
2026-05-07 00:25 41.72243 -112.02094 24600 ft 411 kts 188°
2026-05-07 00:25 41.69404 -112.02532 24385 ft 410 kts 189°
2026-05-07 00:25 41.66590 -112.02965 24040 ft 406 kts 188°
2026-05-07 00:25 41.64738 -112.03252 23728 ft 406 kts 188°
2026-05-07 00:26 41.60973 -112.03840 23023 ft 405 kts 188°
2026-05-07 00:26 41.58216 -112.04271 22560 ft 404 kts 188°
2026-05-07 00:26 41.55438 -112.04706 22095 ft 401 kts 189°
2026-05-07 00:26 41.52683 -112.05205 21640 ft 399 kts 190°
2026-05-07 00:27 41.49936 -112.05767 21177 ft 397 kts 191°
2026-05-07 00:27 41.47217 -112.06354 20670 ft 395 kts 191°
2026-05-07 00:27 41.44507 -112.06947 20219 ft 394 kts 191°
2026-05-07 00:27 41.41823 -112.07526 19788 ft 392 kts 191°
2026-05-07 00:28 41.39132 -112.08099 19346 ft 391 kts 191°
2026-05-07 00:28 41.36450 -112.08658 18907 ft 390 kts 191°
2026-05-07 00:28 41.33810 -112.09199 18485 ft 389 kts 190°
2026-05-07 00:28 41.31139 -112.09741 17956 ft 384 kts 190°
2026-05-07 00:29 41.28526 -112.10267 17397 ft 373 kts 190°
2026-05-07 00:29 41.25977 -112.10782 16988 ft 369 kts 190°
2026-05-07 00:30 41.18429 -112.12348 15761 ft 363 kts 191°
2026-05-07 00:30 41.16776 -112.12704 15495 ft 362 kts 191°
2026-05-07 00:30 41.13495 -112.13415 14975 ft 359 kts 191°
2026-05-07 00:30 41.11038 -112.13949 14575 ft 357 kts 191°
2026-05-07 00:31 41.08585 -112.14450 14165 ft 356 kts 187°
2026-05-07 00:31 41.06106 -112.14402 13735 ft 357 kts 173°
2026-05-07 00:31 41.04488 -112.14059 13446 ft 355 kts 171°
2026-05-07 00:31 41.02071 -112.13529 13050 ft 352 kts 171°
2026-05-07 00:32 40.99658 -112.13003 12636 ft 349 kts 171°
2026-05-07 00:32 40.97268 -112.12486 12226 ft 347 kts 171°
2026-05-07 00:32 40.94894 -112.11973 11818 ft 344 kts 170°
2026-05-07 00:32 40.92535 -112.11466 11410 ft 342 kts 170°
2026-05-07 00:33 40.89436 -112.10823 10994 ft 335 kts 172°
2026-05-07 00:33 40.87896 -112.10581 10984 ft 326 kts 174°
2026-05-07 00:33 40.85694 -112.10311 10999 ft 319 kts 175°
2026-05-07 00:33 40.83488 -112.10082 11001 ft 317 kts 175°
2026-05-07 00:34 40.81292 -112.09863 11009 ft 316 kts 175°
2026-05-07 00:34 40.79099 -112.09637 11008 ft 316 kts 175°
2026-05-07 00:34 40.76903 -112.09400 11005 ft 317 kts 175°
2026-05-07 00:34 40.74719 -112.09154 11010 ft 315 kts 175°
2026-05-07 00:35 40.72538 -112.08899 11014 ft 312 kts 175°
2026-05-07 00:35 40.70385 -112.08646 11022 ft 310 kts 174°
2026-05-07 00:35 40.68261 -112.08398 10792 ft 315 kts 174°
2026-05-07 00:35 40.66024 -112.08138 10099 ft 327 kts 174°
2026-05-07 00:36 40.63776 -112.07878 9837 ft 320 kts 174°
2026-05-07 00:36 40.61605 -112.07631 9686 ft 309 kts 174°
2026-05-07 00:36 40.59495 -112.07392 9563 ft 299 kts 174°
2026-05-07 00:36 40.57451 -112.07124 9426 ft 296 kts 168°
2026-05-07 00:37 40.55151 -112.05429 9077 ft 284 kts 124°
2026-05-07 00:37 40.54620 -112.04248 8972 ft 270 kts 102°
2026-05-07 00:37 40.54350 -112.01902 8896 ft 258 kts 82°
2026-05-07 00:37 40.54836 -111.99701 8525 ft 249 kts 54°
2026-05-07 00:38 40.55998 -111.98096 8243 ft 238 kts 29°
2026-05-07 00:38 40.57504 -111.97353 8033 ft 228 kts
2026-05-07 00:38 40.59058 -111.97406 7811 ft 222 kts 354°
2026-05-07 00:38 40.60580 -111.97589 7616 ft 213 kts 354°
2026-05-07 00:39 40.62032 -111.97758 7288 ft 207 kts 354°
2026-05-07 00:39 40.63429 -111.97920 6998 ft 196 kts 352°
2026-05-07 00:39 40.64737 -111.98070 6744 ft 183 kts 352°
2026-05-07 00:39 40.65968 -111.98211 6515 ft 177 kts 353°
2026-05-07 00:40 40.67159 -111.98347 6290 ft 169 kts 353°
2026-05-07 00:40 40.68292 -111.98475 6071 ft 158 kts 353°
2026-05-07 00:40 40.69354 -111.98597 5862 ft 148 kts 353°
2026-05-07 00:40 40.70366 -111.98716 5676 ft 144 kts 353°
2026-05-07 00:41 40.71356 -111.98833 5464 ft 142 kts 354°
2026-05-07 00:41 40.72343 -111.98948 5280 ft 143 kts 354°
2026-05-07 00:41 40.73317 -111.99059 5066 ft 140 kts 355°
2026-05-07 00:41 40.74253 -111.99169 4859 ft 134 kts 354°
2026-05-07 00:42 40.75181 -111.99281 4715 ft 135 kts 355°
2026-05-07 00:42 40.76124 -111.99390 4559 ft 135 kts 356°
2026-05-07 00:42 40.77064 -111.99496 4389 ft 135 kts 354°
2026-05-07 00:42 40.77966 -111.99603 4263 ft 129 kts 354°
2026-05-07 00:43 40.78604 -111.99678 4233 ft 28 kts 357°
2026-05-07 00:43 40.78723 -111.99689 4233 ft 17 kts
2026-05-07 00:43 40.78760 -111.99604 4233 ft 11 kts 116°
2026-05-07 00:43 40.78715 -111.99526 4232 ft 10 kts 136°
2026-05-07 00:44 40.78664 -111.99478 4230 ft 8 kts 140°
2026-05-07 00:44 40.78644 -111.99416 4231 ft 7 kts 92°
2026-05-07 00:44 40.78648 -111.99346 4231 ft 13 kts 85°
2026-05-07 00:44 40.78659 -111.99189 4231 ft 18 kts 85°
2026-05-07 00:45 40.78636 -111.99125 4231 ft 7 kts 155°
2026-05-07 00:45 40.78589 -111.99117 4231 ft 4 kts 175°
2026-05-07 00:45 40.78587 -111.99117 4231 ft 0 kts 175°